| time (UTC) | temp F | wind direction | speed MPH | gust MPH | rain 1hr in | rain 24hr in | rain mn in | humidity % | barometer mb |
| 20260903183540 | 57 | 281 | 5.0 | 14.0 | 0.00 | 0.00 | 0.00 | 90 | 1007.1 |
| 20260903183055 | 57 | 276 | 8.0 | 16.0 | 0.00 | 0.00 | 0.00 | 90 | 1007.1 |
| 20260903182539 | 57 | 289 | 9.0 | 16.0 | 0.00 | 0.00 | 0.00 | 90 | 1007.2 |
| 20260903182038 | 57 | 300 | 10.0 | 16.0 | 0.00 | 0.00 | 0.00 | 91 | 1007.2 |
| 20260903181601 | 57 | 260 | 10.0 | 16.0 | 0.00 | 0.00 | 0.00 | 91 | 1007.2 |
| 20260903181039 | 57 | 275 | 9.0 | 15.0 | 0.00 | 0.00 | 0.00 | 91 | 1007.3 |
| 20260903180539 | 57 | 319 | 9.0 | 15.0 | 0.00 | 0.00 | 0.00 | 91 | 1007.1 |
| 20260903180115 | 57 | 278 | 9.0 | 15.0 | 0.00 | 0.00 | 0.00 | 91 | 1007.2 |
| 20260903175541 | 57 | 293 | 9.0 | 17.0 | 0.00 | 0.00 | 0.00 | 91 | 1007.4 |
| 20260903175041 | 57 | 273 | 10.0 | 17.0 | 0.00 | 0.00 | 0.00 | 91 | 1007.5 |
| 20260903174558 | 57 | 273 | 8.0 | 15.0 | 0.00 | 0.00 | 0.00 | 92 | 1007.6 |
| 20260903174041 | 57 | 286 | 7.0 | 14.0 | 0.00 | 0.00 | 0.00 | 92 | 1007.5 |
| 20260903173540 | 56 | 257 | 4.0 | 14.0 | 0.00 | 0.00 | 0.00 | 92 | 1007.6 |
| 20260903173057 | 57 | 312 | 6.0 | 13.0 | 0.00 | 0.00 | 0.00 | 92 | 1007.6 |
| 20260903172539 | 56 | 279 | 7.0 | 13.0 | 0.00 | 0.00 | 0.00 | 93 | 1007.7 |
| 20260903172039 | 56 | 271 | 7.0 | 15.0 | 0.00 | 0.00 | 0.00 | 93 | 1007.9 |
| 20260903171554 | 56 | 273 | 7.0 | 15.0 | 0.00 | 0.00 | 0.00 | 93 | 1007.8 |
| 20260903171040 | 56 | 321 | 7.0 | 15.0 | 0.00 | 0.00 | 0.00 | 93 | 1008.0 |
| 20260903170539 | 56 | 259 | 6.0 | 14.0 | 0.00 | 0.00 | 0.00 | 93 | 1008.0 |
| 20260903170047 | 57 | 270 | 6.0 | 14.0 | 0.00 | 0.00 | 0.00 | 93 | 1008.0 |
| 20260903165542 | 57 | 268 | 6.0 | 15.0 | 0.00 | 0.00 | 0.00 | 93 | 1008.1 |
| 20260903165044 | 57 | 259 | 6.0 | 16.0 | 0.00 | 0.00 | 0.00 | 93 | 1008.1 |
| 20260903164605 | 57 | 263 | 7.0 | 16.0 | 0.00 | 0.00 | 0.00 | 93 | 1008.2 |
| 20260903164040 | 57 | 270 | 8.0 | 14.0 | 0.00 | 0.00 | 0.00 | 93 | 1008.1 |
| 20260903163540 | 57 | 269 | 8.0 | 16.0 | 0.00 | 0.00 | 0.00 | 93 | 1008.2 |
| 20260903163055 | 57 | 288 | 9.0 | 16.0 | 0.00 | 0.00 | 0.00 | 93 | 1008.2 |
| 20260903162543 | 57 | 294 | 10.0 | 16.0 | 0.00 | 0.00 | 0.00 | 93 | 1008.1 |
| 20260903162035 | 57 | 323 | 9.0 | 15.0 | 0.00 | 0.00 | 0.00 | 93 | 1008.3 |
| 20260903161551 | 57 | 272 | 8.0 | 15.0 | 0.00 | 0.00 | 0.00 | 92 | 1008.3 |
| 20260903161035 | 57 | 291 | 8.0 | 18.0 | 0.00 | 0.00 | 0.00 | 92 | 1008.3 |
| 20260903160539 | 57 | 277 | 11.0 | 18.0 | 0.00 | 0.00 | 0.00 | 92 | 1008.2 |
| 20260903160107 | 57 | 286 | 11.0 | 17.0 | 0.00 | 0.00 | 0.00 | 92 | 1008.2 |
| 20260903155543 | 57 | 277 | 9.0 | 16.0 | 0.00 | 0.00 | 0.00 | 92 | 1008.2 |
| 20260903155036 | 57 | 321 | 9.0 | 17.0 | 0.00 | 0.00 | 0.00 | 91 | 1008.4 |
| 20260903154558 | 57 | 274 | 10.0 | 22.0 | 0.00 | 0.00 | 0.00 | 91 | 1008.5 |
| 20260903154036 | 57 | 246 | 12.0 | 22.0 | 0.00 | 0.00 | 0.00 | 91 | 1008.6 |
| 20260903153537 | 57 | 264 | 14.0 | 22.0 | 0.00 | 0.00 | 0.00 | 91 | 1008.6 |
| 20260903153054 | 57 | 283 | 10.0 | 18.0 | 0.00 | 0.00 | 0.00 | 91 | 1008.7 |
| 20260903152536 | 58 | 252 | 9.0 | 19.0 | 0.00 | 0.00 | 0.00 | 91 | 1008.8 |
| 20260903152037 | 58 | 299 | 12.0 | 19.0 | 0.00 | 0.00 | 0.00 | 90 | 1008.7 |
| 20260903151553 | 58 | 279 | 11.0 | 20.0 | 0.00 | 0.00 | 0.00 | 90 | 1008.8 |
| 20260903151036 | 58 | 300 | 14.0 | 20.0 | 0.00 | 0.00 | 0.00 | 89 | 1008.7 |
| 20260903150536 | 58 | 274 | 11.0 | 16.0 | 0.00 | 0.00 | 0.00 | 89 | 1008.8 |
| 20260903150053 | 58 | 292 | 10.0 | 16.0 | 0.00 | 0.00 | 0.00 | 89 | 1008.9 |
| 20260903145535 | 58 | 325 | 9.0 | 17.0 | 0.00 | 0.00 | 0.00 | 89 | 1009.0 |
| 20260903145038 | 58 | 274 | 9.0 | 17.0 | 0.00 | 0.00 | 0.00 | 89 | 1009.0 |
| 20260903144558 | 57 | 263 | 9.0 | 17.0 | 0.00 | 0.00 | 0.00 | 89 | 1009.0 |
| 20260903144039 | 57 | 296 | 8.0 | 14.0 | 0.00 | 0.00 | 0.00 | 89 | 1009.3 |
| 20260903143539 | 57 | 327 | 9.0 | 14.0 | 0.00 | 0.00 | 0.00 | 89 | 1009.4 |
| 20260903143056 | 57 | 28 | 6.0 | 12.0 | 0.00 | 0.00 | 0.00 | 89 | 1009.4 |
| 20260903142535 | 57 | 297 | 7.0 | 12.0 | 0.00 | 0.00 | 0.00 | 89 | 1009.5 |
| 20260903142036 | 56 | 268 | 5.0 | 9.0 | 0.00 | 0.00 | 0.00 | 90 | 1009.5 |
| 20260903141554 | 56 | 256 | 2.0 | 7.0 | 0.00 | 0.00 | 0.00 | 90 | 1009.6 |
| 20260903141037 | 56 | 287 | 0.0 | 6.0 | 0.00 | 0.00 | 0.00 | 90 | 1009.7 |
| 20260903140541 | 57 | 272 | 3.0 | 7.0 | 0.00 | 0.00 | 0.00 | 90 | 1009.8 |
| 20260903140051 | 57 | 266 | 3.0 | 14.0 | 0.00 | 0.00 | 0.00 | 90 | 1009.8 |
| 20260903135535 | 57 | 289 | 4.0 | 14.0 | 0.00 | 0.00 | 0.00 | 90 | 1010.0 |
| 20260903135036 | 57 | 68 | 4.0 | 9.0 | 0.00 | 0.00 | 0.00 | 90 | 1010.0 |
| 20260903134546 | 57 | 263 | 3.0 | 7.0 | 0.00 | 0.00 | 0.00 | 90 | 1010.1 |
| 20260903134036 | 57 | 272 | 3.0 | 9.0 | 0.00 | 0.00 | 0.00 | 90 | 1010.2 |
| 20260903133535 | 57 | 282 | 3.0 | 9.0 | 0.00 | 0.00 | 0.00 | 90 | 1010.2 |
| 20260903133057 | 57 | 276 | 4.0 | 10.0 | 0.00 | 0.00 | 0.00 | 90 | 1010.2 |
| 20260903132537 | 57 | 270 | 4.0 | 12.0 | 0.00 | 0.00 | 0.00 | 90 | 1010.3 |
| 20260903132035 | 57 | 273 | 6.0 | 14.0 | 0.00 | 0.00 | 0.00 | 90 | 1010.4 |
| 20260903131554 | 57 | 289 | 9.0 | 14.0 | 0.00 | 0.00 | 0.00 | 91 | 1010.4 |
| 20260903131039 | 57 | 329 | 7.0 | 14.0 | 0.00 | 0.00 | 0.00 | 91 | 1010.4 |
| 20260903130541 | 57 | 256 | 5.0 | 11.0 | 0.00 | 0.00 | 0.00 | 91 | 1010.3 |
| 20260903130131 | 57 | 271 | 7.0 | 12.0 | 0.00 | 0.00 | 0.00 | 91 | 1010.3 |
| 20260903125539 | 58 | 263 | 6.0 | 15.0 | 0.00 | 0.00 | 0.00 | 91 | 1010.3 |
| 20260903125039 | 58 | 319 | 8.0 | 15.0 | 0.00 | 0.00 | 0.00 | 91 | 1010.4 |
| 20260903124555 | 58 | 292 | 8.0 | 14.0 | 0.00 | 0.00 | 0.00 | 91 | 1010.5 |
| 20260903124038 | 58 | 290 | 6.0 | 12.0 | 0.00 | 0.00 | 0.00 | 91 | 1010.6 |
| 20260903123538 | 58 | 287 | 7.0 | 13.0 | 0.00 | 0.00 | 0.00 | 91 | 1010.8 |
| 20260903123102 | 58 | 265 | 7.0 | 17.0 | 0.00 | 0.00 | 0.00 | 91 | 1010.8 |
| 20260903122540 | 58 | 267 | 9.0 | 17.0 | 0.00 | 0.00 | 0.00 | 91 | 1010.9 |
| 20260903122041 | 58 | 294 | 7.0 | 13.0 | 0.00 | 0.00 | 0.00 | 91 | 1010.8 |
| 20260903121550 | 57 | 265 | 6.0 | 14.0 | 0.00 | 0.00 | 0.00 | 91 | 1010.8 |
| 20260903121040 | 57 | 301 | 6.0 | 14.0 | 0.00 | 0.00 | 0.00 | 92 | 1010.9 |
| 20260903120540 | 57 | 288 | 8.0 | 13.0 | 0.00 | 0.00 | 0.00 | 92 | 1011.0 |
| 20260903120104 | 57 | 278 | 6.0 | 12.0 | 0.00 | 0.00 | 0.00 | 92 | 1011.0 |
| 20260903115540 | 57 | 263 | 7.0 | 12.0 | 0.00 | 0.00 | 0.00 | 92 | 1011.0 |
| 20260903115038 | 57 | 298 | 7.0 | 15.0 | 0.00 | 0.00 | 0.00 | 92 | 1011.1 |
| 20260903114600 | 57 | 277 | 8.0 | 18.0 | 0.00 | 0.00 | 0.00 | 92 | 1011.1 |
| 20260903114044 | 57 | 272 | 11.0 | 18.0 | 0.00 | 0.00 | 0.00 | 92 | 1011.3 |
| 20260903113542 | 57 | 298 | 10.0 | 17.0 | 0.00 | 0.00 | 0.00 | 92 | 1011.3 |
| 20260903113053 | 57 | 276 | 11.0 | 17.0 | 0.00 | 0.00 | 0.00 | 92 | 1011.4 |
| 20260903112540 | 57 | 302 | 9.0 | 16.0 | 0.00 | 0.00 | 0.00 | 92 | 1011.5 |
| 20260903112039 | 57 | 290 | 9.0 | 15.0 | 0.00 | 0.00 | 0.00 | 92 | 1011.4 |
| 20260903111558 | 56 | 308 | 5.0 | 8.0 | 0.00 | 0.00 | 0.00 | 92 | 1011.5 |
| 20260903111042 | 56 | 275 | 3.0 | 7.0 | 0.00 | 0.00 | 0.00 | 91 | 1011.6 |
| 20260903110539 | 56 | 250 | 2.0 | 7.0 | 0.00 | 0.00 | 0.00 | 91 | 1011.7 |
| 20260903110120 | 56 | 269 | 3.0 | 7.0 | 0.00 | 0.00 | 0.00 | 91 | 1011.8 |
| 20260903105539 | 56 | 294 | 1.0 | 7.0 | 0.00 | 0.00 | 0.00 | 91 | 1011.7 |
| 20260903105039 | 56 | 320 | 4.0 | 7.0 | 0.00 | 0.00 | 0.00 | 91 | 1012.0 |
| 20260903104556 | 56 | 277 | 2.0 | 6.0 | 0.00 | 0.00 | 0.00 | 91 | 1011.9 |
| 20260903104038 | 56 | 246 | 1.0 | 7.0 | 0.00 | 0.00 | 0.00 | 90 | 1012.0 |
| 20260903103542 | 56 | 277 | 1.0 | 7.0 | 0.00 | 0.00 | 0.00 | 90 | 1011.9 |
| 20260903103052 | 56 | 277 | 2.0 | 6.0 | 0.00 | 0.00 | 0.00 | 90 | 1012.0 |
| 20260903102539 | 56 | 273 | 1.0 | 6.0 | 0.00 | 0.00 | 0.00 | 90 | 1012.0 |
| 20260903102041 | 55 | 255 | 3.0 | 7.0 | 0.00 | 0.00 | 0.00 | 90 | 1012.1 |
| 20260903101608 | 55 | 273 | 2.0 | 7.0 | 0.00 | 0.00 | 0.00 | 90 | 1012.1 |
| 20260903101039 | 55 | 302 | 3.0 | 4.0 | 0.00 | 0.00 | 0.00 | 90 | 1012.1 |
| 20260903100539 | 55 | 336 | 2.0 | 4.0 | 0.00 | 0.00 | 0.00 | 90 | 1012.2 |
| 20260903100059 | 55 | 271 | 1.0 | 4.0 | 0.00 | 0.00 | 0.00 | 90 | 1012.2 |
| 20260903095538 | 55 | 255 | 1.0 | 4.0 | 0.00 | 0.00 | 0.00 | 90 | 1012.3 |
| 20260903095038 | 55 | 259 | 2.0 | 4.0 | 0.00 | 0.00 | 0.00 | 90 | 1012.4 |
| 20260903094600 | 55 | 329 | 2.0 | 4.0 | 0.00 | 0.00 | 0.00 | 90 | 1012.4 |
| 20260903094039 | 55 | 271 | 1.0 | 4.0 | 0.00 | 0.00 | 0.00 | 90 | 1012.5 |
| 20260903093539 | 55 | 269 | 3.0 | 4.0 | 0.00 | 0.00 | 0.00 | 90 | 1012.4 |
| 20260903093051 | 55 | 261 | 2.0 | 4.0 | 0.00 | 0.00 | 0.00 | 90 | 1012.4 |
| 20260903092539 | 54 | 265 | 1.0 | 3.0 | 0.00 | 0.00 | 0.00 | 90 | 1012.4 |
| 20260903092039 | 54 | 264 | 2.0 | 4.0 | 0.00 | 0.00 | 0.00 | 90 | 1012.4 |
| 20260903091600 | 54 | 261 | 1.0 | 4.0 | 0.00 | 0.00 | 0.00 | 90 | 1012.4 |
| 20260903091039 | 54 | 265 | 1.0 | 2.0 | 0.00 | 0.00 | 0.00 | 91 | 1012.4 |
| 20260903090539 | 54 | 266 | 1.0 | 2.0 | 0.00 | 0.00 | 0.00 | 91 | 1012.5 |
| 20260903090059 | 54 | 267 | 0.0 | 2.0 | 0.00 | 0.00 | 0.00 | 90 | 1012.5 |
| 20260903085538 | 54 | 267 | 0.0 | 3.0 | 0.00 | 0.00 | 0.00 | 90 | 1012.5 |
| 20260903085038 | 54 | 265 | 0.0 | 4.0 | 0.00 | 0.00 | 0.00 | 90 | 1012.6 |
| 20260903084555 | 54 | 265 | 2.0 | 4.0 | 0.00 | 0.00 | 0.00 | 90 | 1012.5 |
| 20260903084040 | 54 | 260 | 1.0 | 3.0 | 0.00 | 0.00 | 0.00 | 90 | 1012.5 |
| 20260903083539 | 55 | 270 | 1.0 | 3.0 | 0.00 | 0.00 | 0.00 | 90 | 1012.4 |
| 20260903083059 | 55 | 265 | 0.0 | 3.0 | 0.00 | 0.00 | 0.00 | 89 | 1012.6 |
| 20260903082538 | 56 | 0 | 0.0 | 3.0 | 0.00 | 0.00 | 0.00 | 89 | 1012.6 |
| 20260903082040 | 56 | 273 | 1.0 | 3.0 | 0.00 | 0.00 | 0.00 | 89 | 1012.5 |
| 20260903081550 | 56 | 270 | 0.0 | 7.0 | 0.00 | 0.00 | 0.00 | 89 | 1012.6 |
| 20260903081038 | 57 | 0 | 1.0 | 7.0 | 0.00 | 0.00 | 0.00 | 90 | 1012.8 |
| 20260903080539 | 57 | 281 | 4.0 | 9.0 | 0.00 | 0.00 | 0.00 | 90 | 1012.7 |
| 20260903080104 | 57 | 298 | 5.0 | 9.0 | 0.00 | 0.00 | 0.00 | 90 | 1012.7 |
| 20260903075538 | 57 | 259 | 3.0 | 7.0 | 0.00 | 0.00 | 0.00 | 90 | 1012.7 |
| 20260903075038 | 57 | 253 | 3.0 | 7.0 | 0.00 | 0.00 | 0.00 | 89 | 1012.6 |
| 20260903074608 | 57 | 230 | 1.0 | 8.0 | 0.00 | 0.00 | 0.00 | 89 | 1012.7 |
| 20260903074038 | 57 | 232 | 3.0 | 8.0 | 0.00 | 0.00 | 0.00 | 89 | 1012.7 |
| 20260903073538 | 57 | 250 | 3.0 | 9.0 | 0.00 | 0.00 | 0.00 | 89 | 1012.7 |
| 20260903073100 | 57 | 262 | 5.0 | 11.0 | 0.00 | 0.00 | 0.00 | 89 | 1012.8 |
| 20260903072540 | 57 | 268 | 5.0 | 11.0 | 0.00 | 0.00 | 0.00 | 89 | 1012.7 |
| 20260903072043 | 57 | 270 | 4.0 | 9.0 | 0.00 | 0.00 | 0.00 | 89 | 1012.7 |
| 20260903071553 | 57 | 286 | 3.0 | 8.0 | 0.00 | 0.00 | 0.00 | 89 | 1012.7 |
| 20260903071040 | 57 | 242 | 3.0 | 9.0 | 0.00 | 0.00 | 0.00 | 89 | 1012.8 |
| 20260903070538 | 57 | 261 | 5.0 | 9.0 | 0.00 | 0.00 | 0.00 | 89 | 1012.7 |
| 20260903065539 | 57 | 249 | 4.0 | 10.0 | 0.00 | 0.00 | 0.00 | 89 | 1012.8 |
| 20260903065035 | 57 | 254 | 4.0 | 10.0 | 0.00 | 0.00 | 0.00 | 89 | 1012.7 |
| 20260903064602 | 57 | 240 | 4.0 | 9.0 | 0.00 | 0.00 | 0.00 | 88 | 1012.7 |
| 20260903064038 | 57 | 262 | 4.0 | 11.0 | 0.00 | 0.00 | 0.00 | 88 | 1012.7 |
| 20260903063535 | 57 | 261 | 6.0 | 11.0 | 0.00 | 0.00 | 0.00 | 88 | 1012.8 |
| 20260903063054 | 57 | 239 | 5.0 | 10.0 | 0.00 | 0.00 | 0.00 | 88 | 1012.7 |
| 20260903062537 | 57 | 44 | 4.0 | 9.0 | 0.00 | 0.00 | 0.00 | 88 | 1012.7 |
| 20260903062037 | 57 | 312 | 5.0 | 9.0 | 0.00 | 0.00 | 0.00 | 88 | 1012.6 |
| 20260903061601 | 57 | 239 | 4.0 | 14.0 | 0.00 | 0.00 | 0.00 | 88 | 1012.5 |
| 20260903061038 | 57 | 274 | 5.0 | 14.0 | 0.00 | 0.00 | 0.00 | 88 | 1012.5 |
| 20260903060538 | 58 | 238 | 4.0 | 10.0 | 0.00 | 0.00 | 0.00 | 88 | 1012.6 |
| 20260903060058 | 58 | 267 | 4.0 | 11.0 | 0.00 | 0.00 | 0.00 | 88 | 1012.7 |
| 20260903055539 | 58 | 250 | 5.0 | 11.0 | 0.00 | 0.00 | 0.00 | 87 | 1012.7 |
| 20260903055038 | 58 | 244 | 5.0 | 11.0 | 0.00 | 0.00 | 0.00 | 87 | 1012.8 |
| 20260903054557 | 58 | 251 | 5.0 | 10.0 | 0.00 | 0.00 | 0.00 | 86 | 1012.7 |
| 20260903054035 | 58 | 255 | 4.0 | 13.0 | 0.00 | 0.00 | 0.00 | 86 | 1012.7 |
| 20260903053539 | 58 | 256 | 6.0 | 13.0 | 0.00 | 0.00 | 0.00 | 85 | 1012.7 |
| 20260903053107 | 58 | 261 | 5.0 | 12.0 | 0.00 | 0.00 | 0.00 | 85 | 1012.7 |
| 20260903052539 | 58 | 237 | 7.0 | 13.0 | 0.00 | 0.00 | 0.00 | 84 | 1012.7 |
| 20260903052042 | 58 | 254 | 6.0 | 13.0 | 0.00 | 0.00 | 0.00 | 84 | 1012.7 |
| 20260903051554 | 58 | 265 | 8.0 | 13.0 | 0.00 | 0.00 | 0.00 | 84 | 1012.7 |
| 20260903051038 | 58 | 259 | 8.0 | 13.0 | 0.00 | 0.00 | 0.00 | 83 | 1012.8 |
| 20260903050541 | 58 | 247 | 8.0 | 12.0 | 0.00 | 0.00 | 0.00 | 83 | 1012.7 |
| 20260903045539 | 59 | 257 | 7.0 | 15.0 | 0.00 | 0.00 | 0.00 | 83 | 1013.0 |
| 20260903045041 | 59 | 245 | 8.0 | 15.0 | 0.00 | 0.00 | 0.00 | 82 | 1013.0 |
| 20260903044603 | 59 | 252 | 8.0 | 14.0 | 0.00 | 0.00 | 0.00 | 82 | 1013.0 |
| 20260903044038 | 59 | 247 | 8.0 | 14.0 | 0.00 | 0.00 | 0.00 | 83 | 1013.0 |
| 20260903043539 | 58 | 253 | 9.0 | 14.0 | 0.00 | 0.00 | 0.00 | 82 | 1013.1 |
| 20260903043049 | 58 | 253 | 9.0 | 14.0 | 0.00 | 0.00 | 0.00 | 82 | 1013.1 |
| 20260903042539 | 58 | 252 | 10.0 | 16.0 | 0.00 | 0.00 | 0.00 | 81 | 1013.1 |
| 20260903042039 | 59 | 284 | 12.0 | 18.0 | 0.00 | 0.00 | 0.00 | 81 | 1013.0 |
| 20260903041548 | 59 | 249 | 12.0 | 18.0 | 0.00 | 0.00 | 0.00 | 79 | 1013.0 |
| 20260903041039 | 59 | 240 | 11.0 | 17.0 | 0.00 | 0.00 | 0.00 | 78 | 1013.1 |
| 20260903040539 | 60 | 261 | 12.0 | 17.0 | 0.00 | 0.00 | 0.00 | 76 | 1013.1 |
| 20260903040100 | 60 | 267 | 12.0 | 17.0 | 0.00 | 0.00 | 0.00 | 75 | 1013.1 |
| 20260903035538 | 60 | 244 | 10.0 | 19.0 | 0.00 | 0.00 | 0.00 | 76 | 1013.2 |
| 20260903035039 | 60 | 267 | 11.0 | 19.0 | 0.00 | 0.00 | 0.00 | 77 | 1013.2 |
| 20260903034553 | 60 | 262 | 12.0 | 18.0 | 0.00 | 0.00 | 0.00 | 76 | 1013.1 |
| 20260903034038 | 60 | 250 | 12.0 | 18.0 | 0.00 | 0.00 | 0.00 | 76 | 1013.1 |
| 20260903033543 | 60 | 251 | 12.0 | 19.0 | 0.00 | 0.00 | 0.00 | 76 | 1013.2 |
| 20260903033107 | 60 | 263 | 11.0 | 19.0 | 0.00 | 0.00 | 0.00 | 77 | 1013.3 |
| 20260903032539 | 60 | 237 | 11.0 | 19.0 | 0.00 | 0.00 | 0.00 | 77 | 1013.4 |
| 20260903032038 | 60 | 259 | 13.0 | 19.0 | 0.00 | 0.00 | 0.00 | 78 | 1013.3 |
| 20260903031558 | 60 | 249 | 11.0 | 19.0 | 0.00 | 0.00 | 0.00 | 78 | 1013.4 |
| 20260903031039 | 60 | 260 | 14.0 | 19.0 | 0.00 | 0.00 | 0.00 | 78 | 1013.4 |
| 20260903030539 | 60 | 238 | 13.0 | 18.0 | 0.00 | 0.00 | 0.00 | 78 | 1013.4 |
| 20260903030057 | 60 | 227 | 12.0 | 18.0 | 0.00 | 0.00 | 0.00 | 78 | 1013.4 |
| 20260903025538 | 60 | 259 | 13.0 | 22.0 | 0.00 | 0.00 | 0.00 | 78 | 1013.3 |
| 20260903025038 | 60 | 246 | 12.0 | 22.0 | 0.00 | 0.00 | 0.00 | 79 | 1013.6 |
| 20260903024550 | 60 | 256 | 12.0 | 18.0 | 0.00 | 0.00 | 0.00 | 80 | 1013.6 |
| 20260903024038 | 60 | 242 | 11.0 | 17.0 | 0.00 | 0.00 | 0.00 | 80 | 1013.5 |
| 20260903023540 | 60 | 234 | 12.0 | 17.0 | 0.00 | 0.00 | 0.00 | 81 | 1013.7 |
| 20260903023057 | 61 | 259 | 11.0 | 17.0 | 0.00 | 0.00 | 0.00 | 81 | 1013.7 |
| 20260903022539 | 61 | 242 | 11.0 | 17.0 | 0.00 | 0.00 | 0.00 | 81 | 1013.7 |
| 20260903022039 | 61 | 252 | 11.0 | 18.0 | 0.00 | 0.00 | 0.00 | 81 | 1013.7 |
| 20260903021607 | 60 | 248 | 13.0 | 19.0 | 0.00 | 0.00 | 0.00 | 80 | 1013.8 |
| 20260903021038 | 60 | 262 | 12.0 | 20.0 | 0.00 | 0.00 | 0.00 | 80 | 1013.8 |
| 20260903020539 | 60 | 256 | 13.0 | 21.0 | 0.00 | 0.00 | 0.00 | 81 | 1013.9 |
| 20260903020058 | 60 | 253 | 14.0 | 21.0 | 0.00 | 0.00 | 0.00 | 79 | 1013.8 |
| 20260903015537 | 60 | 299 | 13.0 | 21.0 | 0.00 | 0.00 | 0.00 | 79 | 1013.9 |
| 20260903015038 | 60 | 240 | 13.0 | 26.0 | 0.00 | 0.00 | 0.00 | 80 | 1014.0 |
| 20260903014551 | 60 | 252 | 14.0 | 26.0 | 0.00 | 0.00 | 0.00 | 80 | 1014.0 |
| 20260903014039 | 60 | 241 | 13.0 | 22.0 | 0.00 | 0.00 | 0.00 | 80 | 1014.1 |
| 20260903013539 | 60 | 261 | 12.0 | 22.0 | 0.00 | 0.00 | 0.00 | 79 | 1014.0 |
| 20260903013105 | 61 | 234 | 11.0 | 20.0 | 0.00 | 0.00 | 0.00 | 78 | 1014.2 |
| 20260903012539 | 61 | 257 | 12.0 | 20.0 | 0.00 | 0.00 | 0.00 | 79 | 1014.3 |
| 20260903012039 | 61 | 221 | 11.0 | 19.0 | 0.00 | 0.00 | 0.00 | 77 | 1014.4 |
| 20260903011606 | 60 | 250 | 10.0 | 22.0 | 0.00 | 0.00 | 0.00 | 78 | 1014.4 |
| 20260903011039 | 60 | 238 | 14.0 | 22.0 | 0.00 | 0.00 | 0.00 | 77 | 1014.4 |
| 20260903010539 | 60 | 310 | 9.0 | 21.0 | 0.00 | 0.00 | 0.00 | 77 | 1014.5 |
| 20260903010110 | 60 | 241 | 11.0 | 19.0 | 0.00 | 0.00 | 0.00 | 77 | 1014.7 |
| 20260903005541 | 60 | 230 | 11.0 | 19.0 | 0.00 | 0.00 | 0.00 | 78 | 1014.9 |
| 20260903005039 | 60 | 246 | 11.0 | 20.0 | 0.00 | 0.00 | 0.00 | 77 | 1014.8 |
| 20260903004557 | 60 | 253 | 11.0 | 20.0 | 0.00 | 0.00 | 0.00 | 79 | 1015.0 |
| 20260903004039 | 60 | 258 | 11.0 | 22.0 | 0.00 | 0.00 | 0.00 | 79 | 1015.0 |
| 20260903003539 | 60 | 237 | 10.0 | 22.0 | 0.00 | 0.00 | 0.00 | 79 | 1015.1 |
| 20260903003114 | 60 | 259 | 10.0 | 20.0 | 0.00 | 0.00 | 0.00 | 79 | 1015.0 |
| 20260903002539 | 59 | 250 | 10.0 | 20.0 | 0.00 | 0.00 | 0.00 | 79 | 1015.1 |
| 20260903002039 | 60 | 260 | 12.0 | 20.0 | 0.00 | 0.00 | 0.00 | 80 | 1015.0 |
| 20260903001602 | 60 | 265 | 10.0 | 21.0 | 0.00 | 0.00 | 0.00 | 79 | 1015.2 |
| 20260903001038 | 60 | 282 | 9.0 | 23.0 | 0.00 | 0.00 | 0.00 | 81 | 1015.2 |
| 20260903000538 | 60 | 277 | 16.0 | 23.0 | 0.00 | 0.00 | 0.00 | 78 | 1015.2 |
| 20260903000104 | 60 | 286 | 10.0 | 21.0 | 0.00 | 0.00 | 0.00 | 79 | 1015.2 |
| 20260902235538 | 61 | 311 | 9.0 | 24.0 | 0.00 | 0.00 | 0.00 | 82 | 1015.2 |
| 20260902235040 | 60 | 234 | 11.0 | 24.0 | 0.00 | 0.00 | 0.00 | 80 | 1015.3 |
| 20260902234555 | 60 | 311 | 14.0 | 24.0 | 0.00 | 0.00 | 0.00 | 81 | 1015.3 |
| 20260902234038 | 60 | 300 | 12.0 | 22.0 | 0.00 | 0.00 | 0.00 | 81 | 1015.4 |
| 20260902233539 | 59 | 278 | 13.0 | 22.0 | 0.00 | 0.00 | 0.00 | 82 | 1015.3 |
| 20260902233059 | 59 | 259 | 11.0 | 18.0 | 0.00 | 0.00 | 0.00 | 81 | 1015.4 |
| 20260902232540 | 60 | 239 | 10.0 | 21.0 | 0.00 | 0.00 | 0.00 | 82 | 1015.5 |
| 20260902232039 | 60 | 288 | 11.0 | 21.0 | 0.00 | 0.00 | 0.00 | 82 | 1015.3 |
| 20260902231559 | 60 | 241 | 10.0 | 19.0 | 0.00 | 0.00 | 0.00 | 82 | 1015.3 |
| 20260902231043 | 59 | 273 | 8.0 | 22.0 | 0.00 | 0.00 | 0.00 | 82 | 1015.3 |
| 20260902230544 | 60 | 284 | 13.0 | 22.0 | 0.00 | 0.00 | 0.00 | 82 | 1015.4 |
| 20260902230058 | 59 | 293 | 11.0 | 21.0 | 0.00 | 0.00 | 0.00 | 84 | 1015.7 |
| 20260902225540 | 59 | 266 | 13.0 | 21.0 | 0.00 | 0.00 | 0.00 | 81 | 1015.8 |
| 20260902225039 | 59 | 279 | 11.0 | 17.0 | 0.00 | 0.00 | 0.00 | 83 | 1015.7 |
| 20260902224557 | 59 | 290 | 12.0 | 24.0 | 0.00 | 0.00 | 0.00 | 83 | 1015.6 |
| 20260902224039 | 59 | 289 | 14.0 | 24.0 | 0.00 | 0.00 | 0.00 | 83 | 1015.7 |
| 20260902223541 | 59 | 313 | 12.0 | 21.0 | 0.00 | 0.00 | 0.00 | 82 | 1015.7 |
| 20260902223055 | 59 | 254 | 12.0 | 23.0 | 0.00 | 0.00 | 0.00 | 82 | 1015.7 |
| 20260902222541 | 59 | 270 | 15.0 | 23.0 | 0.00 | 0.00 | 0.00 | 82 | 1015.7 |
| 20260902222043 | 59 | 241 | 11.0 | 24.0 | 0.00 | 0.00 | 0.00 | 83 | 1015.7 |
| 20260902221617 | 58 | 279 | 13.0 | 25.0 | 0.00 | 0.00 | 0.00 | 84 | 1015.6 |
| 20260902221040 | 58 | 271 | 15.0 | 25.0 | 0.00 | 0.00 | 0.00 | 83 | 1015.6 |
| 20260902220540 | 58 | 246 | 13.0 | 20.0 | 0.00 | 0.00 | 0.00 | 83 | 1015.6 |
| 20260902220058 | 58 | 304 | 13.0 | 20.0 | 0.00 | 0.00 | 0.00 | 84 | 1015.8 |
| 20260902215537 | 58 | 276 | 13.0 | 21.0 | 0.00 | 0.00 | 0.00 | 84 | 1015.8 |
| 20260902215043 | 58 | 250 | 11.0 | 21.0 | 0.00 | 0.00 | 0.00 | 84 | 1015.6 |
| 20260902214557 | 57 | 290 | 11.0 | 21.0 | 0.00 | 0.00 | 0.00 | 85 | 1015.5 |
| 20260902214039 | 57 | 271 | 12.0 | 20.0 | 0.00 | 0.00 | 0.00 | 85 | 1015.6 |
| 20260902213535 | 56 | 286 | 12.0 | 20.0 | 0.00 | 0.00 | 0.00 | 85 | 1015.6 |
| 20260902213053 | 56 | 276 | 14.0 | 20.0 | 0.00 | 0.00 | 0.00 | 85 | 1015.7 |
| 20260902212537 | 56 | 269 | 10.0 | 19.0 | 0.00 | 0.00 | 0.00 | 85 | 1015.7 |
| 20260902212035 | 56 | 288 | 11.0 | 19.0 | 0.00 | 0.00 | 0.00 | 85 | 1015.8 |
| 20260902211612 | 56 | 287 | 9.0 | 15.0 | 0.00 | 0.00 | 0.00 | 85 | 1015.8 |
| 20260902211037 | 56 | 270 | 9.0 | 15.0 | 0.00 | 0.00 | 0.00 | 85 | 1015.8 |
| 20260902210537 | 56 | 279 | 8.0 | 15.0 | 0.00 | 0.00 | 0.00 | 85 | 1015.8 |
| 20260902210100 | 55 | 271 | 7.0 | 14.0 | 0.00 | 0.00 | 0.00 | 85 | 1015.8 |
| 20260902205539 | 55 | 274 | 7.0 | 14.0 | 0.00 | 0.00 | 0.00 | 86 | 1015.9 |
| 20260902205036 | 55 | 283 | 8.0 | 15.0 | 0.00 | 0.00 | 0.00 | 85 | 1015.7 |
| 20260902204555 | 55 | 260 | 8.0 | 15.0 | 0.00 | 0.00 | 0.00 | 85 | 1015.7 |
| 20260902204039 | 55 | 275 | 7.0 | 17.0 | 0.00 | 0.00 | 0.00 | 85 | 1015.8 |
| 20260902203536 | 54 | 273 | 7.0 | 17.0 | 0.00 | 0.00 | 0.00 | 85 | 1015.8 |
| 20260902203051 | 54 | 269 | 8.0 | 14.0 | 0.00 | 0.00 | 0.00 | 85 | 1015.7 |
| 20260902202536 | 54 | 291 | 8.0 | 14.0 | 0.00 | 0.00 | 0.00 | 86 | 1015.7 |
| 20260902202037 | 53 | 265 | 7.0 | 11.0 | 0.00 | 0.00 | 0.00 | 86 | 1015.7 |
| 20260902201609 | 53 | 290 | 7.0 | 11.0 | 0.00 | 0.00 | 0.00 | 86 | 1015.6 |
| 20260902201035 | 53 | 281 | 6.0 | 10.0 | 0.00 | 0.00 | 0.00 | 86 | 1015.7 |
| 20260902200536 | 53 | 257 | 6.0 | 10.0 | 0.00 | 0.00 | 0.00 | 86 | 1015.6 |
| 20260902200104 | 53 | 277 | 4.0 | 9.0 | 0.00 | 0.00 | 0.00 | 86 | 1015.8 |
| 20260902195539 | 53 | 265 | 4.0 | 11.0 | 0.00 | 0.00 | 0.00 | 86 | 1015.7 |
| 20260902195036 | 53 | 269 | 4.0 | 11.0 | 0.00 | 0.00 | 0.00 | 86 | 1015.6 |
| 20260902194556 | 53 | 260 | 5.0 | 11.0 | 0.00 | 0.00 | 0.00 | 87 | 1015.6 |
| 20260902194038 | 53 | 266 | 2.0 | 6.0 | 0.00 | 0.00 | 0.00 | 87 | 1015.5 |
| 20260902193539 | 53 | 249 | 2.0 | 6.0 | 0.00 | 0.00 | 0.00 | 87 | 1015.6 |
| 20260902193051 | 53 | 244 | 2.0 | 6.0 | 0.00 | 0.00 | 0.00 | 87 | 1015.5 |
| 20260902192538 | 53 | 257 | 1.0 | 9.0 | 0.00 | 0.00 | 0.00 | 87 | 1015.5 |
| 20260902192040 | 53 | 290 | 3.0 | 9.0 | 0.00 | 0.00 | 0.00 | 87 | 1015.4 |
| 20260902191549 | 53 | 273 | 2.0 | 10.0 | 0.00 | 0.00 | 0.00 | 87 | 1015.3 |
| 20260902191037 | 53 | 300 | 2.0 | 14.0 | 0.00 | 0.00 | 0.00 | 87 | 1015.2 |
| 20260902190535 | 53 | 258 | 4.0 | 14.0 | 0.00 | 0.00 | 0.00 | 87 | 1015.2 |
| 20260902190057 | 53 | 46 | 8.0 | 14.0 | 0.00 | 0.00 | 0.00 | 87 | 1015.0 |
| 20260902185536 | 53 | 327 | 9.0 | 17.0 | 0.00 | 0.00 | 0.00 | 87 | 1014.9 |
| 20260902185038 | 53 | 304 | 10.0 | 17.0 | 0.00 | 0.00 | 0.00 | 87 | 1014.7 |
| 20260902184557 | 53 | 273 | 9.0 | 15.0 | 0.00 | 0.00 | 0.00 | 87 | 1014.8 |
| 20260902184036 | 53 | 263 | 9.0 | 15.0 | 0.00 | 0.00 | 0.00 | 87 | 1014.9 |